THORAD AGENA D DEB, 4997

Orbit data source: Space-Track

THORAD AGENA D DEB, 4997 is space debris in SSO originally from a launch on Wed, 08 Apr 1970 UTC launched from the Air Force Western Test Range (AFWTR). Debris objects in space refer to the collection of defunct objects orbiting the Earth. Examples of debris include non-operational satellites, rocket bodies, and fragments generated from explosions, collisions, or faulty payload assembly.

Loading next visibility...
Identifier
4997, 1970-025HT
Orbit
SSO
Country
Flag of USUS
Related business
Manufacturer
Unknown
Mission
Spacecraft
Bus & Motor
Unknown
Mass
Unknown
Launch date (UTC)
1970-04-08 (56 years ago)
Launch vehicle
Unknown
Launch site
Air Force Western Test Range (AFWTR)
Object type
Payload
Rocket body
Debris
Shape & HBR
Unknown shape, 0.1 m
Radar Cross Section
Medium (>0.1 m² and <1 m²)

Expand to show TLE details & history
Last TLE update: 1 day ago

TLE from 1 day ago
0 THORAD AGENA D DEB
1  4997U 70025HT  26166.22171729  .00000851  00000-0  59975-3 0  9997
2  4997  99.9421  72.0536 0041111 166.3212 193.9073 14.00835762834246
Epoch: 2026-06-15T05:19Z
TLE epoch observation values (Epoch: 2026-06-15T05:19:16.373Z)
Latitude
-0.00011°
Longitude
88.72419°
Altitude
922.769 km
Speed
7.376 km/s
True Right ascension
04h 48m 12s
True Declination
0° 00' 00"
Sunlit
Object was in daylight at epoch
Visualization orbit readout
Latitude
Unknown
Longitude
Unknown
Altitude
Unknown
Speed
Unknown
Apparent Right ascension
Unknown
Apparent Declination
Unknown
Sunlit
N/A
Visualization observer readout
Local Sidereal Time
19:07:41
Azimuth
Unknown
Elevation
Unknown
Doppler factor
Unknown
Orbital elements
Apogee altitude
918.022 km
Perigee altitude
858.277 km
Semi-major axis
7,266.286 km
Eccentricity
0.00411
Inclination
99.9421°
RAAN
72.0536°
Arg. of periapsis
166.3212°
True anomaly
193.79463°
Mean anomaly
193.9073°
Eccentric anomaly
193.85091°
Mean motion
3.50408 °/min
Orbital period
102.74 mins
BSTAR
0.00059975
Loading maneuver chart data...
Computing Atmospheric mass density...

Documentation

Showing up to 5 results
|